TimeCST,TemperatureF,Dew PointF,Humidity,Sea Level PressureIn,VisibilityMPH,Wind Direction,Wind SpeedMPH,Gust SpeedMPH,PrecipitationIn,Events,Conditions,WindDirDegrees,DateUTC
12:22 AM,71.6,66.2,83,30.10,10.0,WSW,11.5,-,N/A,Thunderstorm,Thunderstorm,250,2012-11-27 06:22:00
12:56 AM,71.1,66.0,84,30.10,10.0,West,9.2,-,0.00,Rain-Thunderstorm,Light Thunderstorms and Rain,270,2012-11-27 06:56:00
1:10 AM,69.8,66.2,88,30.12,10.0,West,11.5,-,0.02,Rain,Light Rain,280,2012-11-27 07:10:00
1:40 AM,69.8,66.2,88,30.07,10.0,North,15.0,-,0.06,Rain,Light Rain,10,2012-11-27 07:40:00
1:56 AM,69.1,66.9,93,30.07,10.0,North,16.1,-,0.06,,Mostly Cloudy,360,2012-11-27 07:56:00
2:56 AM,68.0,63.0,84,30.09,10.0,NNE,17.3,-,N/A,,Clear,20,2012-11-27 08:56:00
3:56 AM,64.9,53.1,65,30.12,10.0,NNE,25.3,-,N/A,,Scattered Clouds,20,2012-11-27 09:56:00
4:56 AM,64.0,53.1,67,30.15,10.0,North,17.3,-,N/A,,Partly Cloudy,360,2012-11-27 10:56:00
5:56 AM,63.0,52.0,67,30.18,10.0,North,23.0,-,N/A,,Mostly Cloudy,360,2012-11-27 11:56:00
6:56 AM,61.0,51.1,70,30.21,10.0,North,25.3,-,N/A,,Scattered Clouds,10,2012-11-27 12:56:00
7:56 AM,61.0,51.1,70,30.24,10.0,North,25.3,28.8,N/A,,Scattered Clouds,10,2012-11-27 13:56:00
8:56 AM,60.1,48.0,64,30.30,10.0,North,25.3,-,N/A,,Scattered Clouds,10,2012-11-27 14:56:00
9:56 AM,59.0,48.0,67,30.32,10.0,North,18.4,-,N/A,,Scattered Clouds,350,2012-11-27 15:56:00
10:56 AM,62.1,48.0,60,30.32,10.0,North,17.3,24.2,N/A,,Scattered Clouds,360,2012-11-27 16:56:00
11:56 AM,62.1,48.0,60,30.32,10.0,NNW,13.8,-,N/A,,Mostly Cloudy,340,2012-11-27 17:56:00
12:56 PM,64.0,48.9,58,30.28,10.0,NW,13.8,-,N/A,,Mostly Cloudy,320,2012-11-27 18:56:00
1:56 PM,66.9,48.9,52,30.27,10.0,NW,11.5,-,N/A,,Mostly Cloudy,320,2012-11-27 19:56:00
2:56 PM,68.0,48.9,50,30.26,10.0,NNW,12.7,-,N/A,,Mostly Cloudy,340,2012-11-27 20:56:00
3:56 PM,68.0,48.0,49,30.26,10.0,North,12.7,-,N/A,,Mostly Cloudy,350,2012-11-27 21:56:00
4:56 PM,66.9,48.9,52,30.27,10.0,North,13.8,-,N/A,,Mostly Cloudy,350,2012-11-27 22:56:00
5:56 PM,64.0,48.0,56,30.27,10.0,North,12.7,-,N/A,,Scattered Clouds,10,2012-11-27 23:56:00
6:56 PM,63.0,46.9,56,30.29,10.0,North,15.0,-,N/A,,Scattered Clouds,360,2012-11-28 00:56:00
7:56 PM,61.0,46.9,60,30.31,10.0,North,18.4,-,N/A,,Scattered Clouds,10,2012-11-28 01:56:00
8:56 PM,59.0,46.9,64,30.33,10.0,NNE,17.3,-,N/A,,Partly Cloudy,20,2012-11-28 02:56:00
9:56 PM,57.9,45.0,62,30.34,10.0,NNE,18.4,23.0,N/A,,Partly Cloudy,30,2012-11-28 03:56:00
10:56 PM,57.0,45.0,64,30.34,10.0,NE,15.0,-,N/A,,Partly Cloudy,40,2012-11-28 04:56:00
11:56 PM,55.9,46.9,72,30.34,10.0,NNE,11.5,-,N/A,,Clear,30,2012-11-28 05:56:00